Zurück zum Katalog

STARLINK-5926

AktivKommunikationVLEO
NORAD 55944·PAYLOAD·🇺🇸 United States

Gestartet Mar 17, 2023 von Vandenberg Space Force Base

Loading…

Nächste Überflüge (nächste 24 Stunden)

TLE

AktuellSource: CelesTrak SupGP

Epoche: Sep 15, 2026, 01:43 UTC

1 55944C 23037AG  26258.07201389  .00063734  00000+0  53398-2 0  2585
2 55944  70.0016 166.8236 0002949 270.8971 358.0145 14.98308652    16

Verfolge STARLINK-5926 in Echtzeit mit AllMySat

Download on the App Store